Location: Clayton (historical)
(34.0300°N, 118.0259°W)
Time: 08:15:02
(UTC+00:00)

Envisat - Pass Details

Date: 28 January 2021
Orbit: 764 x 766 km, 98.1° (Epoch: 04 March)

Event Time Altitude Azimuth Distance (km) Brightness Sun altitude
Rises 12:46:53 0° 25° (NNE) 3,235 6.5 -25.9°
Reaches altitude 10° 12:49:30 10° 37° (NE) 2,304 5.8 -25.4°
Maximum altitude 12:53:52 29° 96° (E) 1,384 5.0 -24.5°
Drops below altitude 10° 12:58:12 10° 156° (SSE) 2,291 5.8 -23.6°
Sets 13:00:47 0° 167° (SSE) 3,213 6.5 -23.1°
